Location: Beranovka
(49.9415°N, 12.8435°E)
Time: 23:18:33
(UTC+00:00)

Meteor 2-4 Rocket - Pass Details

Date: 10 August 2020
Orbit: 798 x 909 km, 81.2° (Epoch: 23 September)

Event Time Altitude Azimuth Distance (km) Brightness Sun altitude
Rises 20:46:05 0° 349° (N) 3,474 8.1 -17.2°
Reaches altitude 10° 20:48:35 10° 352° (N) 2,515 7.1 -17.4°
Maximum altitude 20:54:16 66° 75° (ENE) 922 3.8 -18.0°
Enters shadow 20:56:50 32° 147° (SSE) 1,400 4.3 -18.2°
